Wetbulb
53.94 55.40 61.15 63.58 65.33 66.88 68.40 69.89 71.12 73.34 73.66 74.03 73.75 73.99 74.03 74.31 74.40 74.33 74.39 74.41 74.55 74.97 74.39 73.92 74.34 74.49 73.77 73.82 73.34 73.22 73.12 72.57 72.60 73.01 73.04 73.95 73.14 72.75 73.59 72.92 72.42 71.57 72.89
55.25 55.83 61.73 61.83 63.91 65.33 67.06 68.18 69.24 71.12 73.66 74.03 73.75 73.83 73.87 74.16 74.22 74.24 74.13 74.38 74.38 74.72 73.81 73.67 74.29 74.12 73.37 73.46 73.08 72.87 72.18 72.00 71.91 72.25 73.24 73.27 73.55 73.47 73.13 72.59 72.28 71.65 72.46
55.27 56.30 57.37 62.87 62.30 63.65 64.99 66.64 67.77 69.06 70.58 73.52 74.02 73.93 73.80 74.27 74.22 74.06 73.75 73.96 74.47 74.77 73.94 73.49 73.95 73.92 73.31 73.07 72.84 72.74 71.94 71.70 71.53 71.72 71.91 69.42 70.13 72.87 72.78 72.45 72.40 72.31 72.72
54.23 55.02 55.94 61.62 61.43 62.22 63.08 64.59 65.94 67.30 68.65 70.00 73.16 73.94 73.75 74.07 74.22 73.91 73.62 73.30 74.08 74.51 74.22 73.64 73.87 73.97 73.41 72.63 72.29 72.27 71.48 70.89 70.53 71.00 68.45 68.71 70.31 73.07 72.35 72.37 72.42 72.38 72.62
53.15 53.64 54.91 61.10 60.52 61.03 62.07 62.72 63.50 65.32 66.44 67.78 69.84 73.35 73.79 74.04 74.22 73.75 73.11 72.63 74.00 74.60 74.42 73.89 74.27 73.64 72.41 71.64 71.46 71.64 71.22 70.23 69.72 68.19 65.94 68.35 70.32 72.26 72.23 72.31 71.80 71.92 71.67
52.70 53.53 54.82 60.11 58.73 59.54 60.90 61.29 61.65 63.11 64.62 65.91 67.49 69.76 72.72 73.62 73.94 73.56 72.62 72.52 73.76 74.51 74.56 74.57 73.62 72.80 71.34 70.95 70.81 70.90 70.72 69.87 69.28 65.75 68.16 70.18 70.21 72.48 72.18 71.94 71.54 71.48 71.43
51.92 52.67 52.44 57.91 57.55 58.41 59.05 60.20 61.26 61.31 62.24 63.32 64.42 65.55 67.47 71.96 73.22 72.87 72.23 72.16 72.91 73.75 73.84 73.60 72.81 71.65 71.12 70.55 70.29 70.15 69.28 69.47 68.15 68.94 67.24 68.80 70.30 72.52 72.06 72.07 71.55 71.14 71.10
50.64 51.48 51.40 54.81 56.40 56.92 57.77 59.10 61.16 61.11 60.97 60.63 61.47 63.04 64.60 66.60 71.17 72.10 71.80 71.54 71.45 72.76 72.45 72.46 71.62 71.05 70.81 70.29 70.03 69.21 68.06 67.72 69.78 67.00 65.56 68.96 71.23 72.33 72.15 71.73 71.15 70.83 70.84
49.74 50.17 49.67 49.67 52.44 54.86 56.20 59.17 59.26 60.59 60.68 59.80 59.69 60.17 61.98 62.85 64.33 69.52 71.18 71.40 71.51 71.34 71.87 71.62 71.11 70.50 70.43 69.93 69.55 68.48 67.65 67.38 67.96 69.25 67.03 68.61 71.68 72.31 72.24 71.24 71.07 70.79 70.55
47.99 47.69 48.45 48.98 49.42 49.72 50.91 56.01 57.30 58.20 59.11 58.81 59.27 59.34 58.46 59.05 60.80 62.30 67.54 70.48 71.07 71.25 71.30 70.73 70.37 69.97 69.76 69.42 68.86 67.99 67.49 67.61 67.20 68.71 68.48 68.13 70.81 72.22 71.97 71.31 70.93 70.65 70.22
46.82 46.51 46.72 48.29 48.50 48.98 49.74 52.00 54.23 56.29 56.52 56.84 58.43 58.25 56.96 56.23 57.26 59.38 61.93 66.07 69.89 70.34 70.32 70.20 69.83 69.25 68.71 68.86 68.66 68.12 67.56 67.58 66.82 68.84 68.48 68.86 70.70 71.81 71.55 71.52 70.65 70.20 69.86
44.08 45.37 45.69 47.11 47.04 48.22 49.55 48.90 49.98 50.65 51.23 52.59 57.18 56.47 57.37 56.33 55.86 57.11 58.35 61.35 62.54 68.73 69.38 69.50 69.09 68.44 68.28 68.73 68.62 68.26 67.83 67.96 67.60 68.36 68.37 68.23 71.16 71.49 70.69 70.93 70.59 70.20 69.71
42.83 45.27 45.04 46.16 46.76 46.78 47.50 48.16 48.71 48.18 49.52 51.25 54.50 55.55 56.08 55.77 55.39 54.86 55.55 56.88 57.92 62.21 69.27 68.48 69.09 68.96 69.02 68.26 68.17 67.49 67.69 66.69 65.96 67.87 67.87 67.60 70.16 71.97 70.50 70.27 70.35 70.19 69.64
41.83 44.09 45.17 45.28 46.20 46.00 46.98 47.47 46.92 47.11 48.32 48.44 50.59 50.94 50.99 52.59 54.15 54.39 54.41 54.80 56.62 58.34 61.69 69.27 68.91 68.68 68.30 68.15 68.10 67.88 67.43 66.38 66.21 67.70 67.67 66.37 68.81 71.67 71.59 70.04 69.65 69.66 69.62
41.45 42.71 43.58 44.42 45.61 45.59 45.89 45.97 46.22 46.01 46.71 47.44 47.76 47.88 48.07 47.82 48.76 51.49 54.25 54.43 54.35 54.83 57.11 65.00 68.35 68.19 68.05 68.05 67.63 67.51 67.43 66.87 66.13 64.15 67.34 66.73 66.62 69.86 71.55 71.07 69.62 69.16 69.32
42.34 42.71 43.33 43.59 44.88 45.23 44.69 44.50 45.32 45.00 45.50 45.88 46.20 46.20 46.51 46.39 46.41 47.58 49.71 53.22 54.07 54.33 56.29 57.47 66.25 67.42 67.49 66.96 67.17 67.02 67.16 66.81 65.88 66.37 67.13 67.54 65.72 67.52 69.58 70.61 70.72 70.16 69.35
41.35 42.49 43.11 44.98 43.98 43.95 43.90 43.91 44.93 45.69 45.95 44.69 44.91 45.66 45.47 45.31 44.91 45.10 47.17 49.02 51.33 54.07 54.57 56.45 64.74 65.58 65.14 65.83 65.39 66.28 66.81 66.67 65.79 66.22 67.14 67.60 66.82 65.28 66.44 68.63 69.30 69.68 68.88
41.02 41.83 42.64 44.99 43.12 43.19 43.05 43.49 44.44 45.34 45.28 44.36 44.27 44.97 44.47 44.67 44.83 43.99 45.03 45.50 47.90 51.41 53.44 53.82 56.83 63.69 63.26 63.54 63.44 63.84 66.01 65.97 64.88 63.26 62.51 66.87 67.43 67.96 65.63 66.29 67.50 67.88 68.21
40.81 41.46 41.68 42.00 42.20 41.98 41.94 43.15 43.21 43.70 44.09 45.15 44.28 44.35 43.89 44.09 44.87 43.14 43.61 44.56 45.82 46.98 49.46 51.54 53.04 57.58 61.71 61.44 62.67 63.32 63.72 64.79 65.04 62.99 63.81 66.31 66.60 67.38 67.98 65.70 65.86 66.02 66.74
40.96 41.53 41.65 42.20 41.79 41.13 41.39 41.97 42.44 42.53 43.28 44.42 43.56 42.84 42.97 42.71 44.03 43.00 42.65 42.71 44.31 44.99 45.78 47.37 49.69 52.10 58.00 61.38 62.29 62.46 62.51 63.94 64.29 64.60 64.80 65.83 65.71 66.76 67.18 67.76 66.90 66.18 64.85
41.03 41.22 41.18 40.68 40.84 40.35 40.28 39.98 40.52 40.20 41.03 41.11 42.32 41.99 41.40 42.20 42.93 42.88 41.83 41.21 42.18 42.84 43.93 45.62 47.48 48.39 50.71 60.03 59.80 59.66 60.99 61.34 63.44 64.42 62.18 61.16 61.73 66.49 66.67 66.62 66.91 66.45 65.78
39.80 40.43 40.64 40.32 40.18 39.67 39.48 39.64 40.38 41.03 39.79 39.98 40.45 41.15 40.10 40.98 42.10 42.80 41.87 40.72 40.91 41.71 43.12 43.33 44.49 45.85 48.90 54.95 58.07 58.35 55.44 57.28 60.35 63.61 64.08 62.22 63.14 66.64 66.42 66.33 65.97 65.82 66.35
38.53 39.29 40.30 40.32 39.82 39.72 39.61 39.51 40.16 40.31 38.92 38.33 37.56 38.36 38.33 39.59 41.14 42.27 42.29 41.40 40.54 40.78 41.24 42.35 42.27 42.81 43.11 46.76 51.39 56.89 54.96 52.93 56.97 60.74 61.14 63.10 64.51 65.31 66.11 66.45 65.88 65.99 65.84
37.68 39.28 40.12 40.55 39.66 40.78 39.66 38.41 37.15 36.84 35.59 36.11 36.50 38.31 37.15 39.07 39.20 40.94 40.68 41.08 40.97 40.35 39.70 40.95 42.44 41.49 42.88 41.71 46.76 55.99 58.75 58.16 55.83 56.26 59.58 61.46 62.62 64.01 65.22 66.42 65.69 65.74 65.48
37.89 38.37 39.07 39.48 39.74 39.56 39.02 38.27 37.87 36.55 36.56 36.47 36.69 35.51 36.14 37.82 38.46 40.08 39.17 40.07 40.81 40.20 39.69 39.74 40.88 40.19 41.31 41.68 42.85 45.59 49.25 58.07 57.97 55.52 55.44 57.96 58.14 60.73 64.91 65.71 66.53 65.96 65.75
37.92 38.51 38.16 38.54 38.66 39.04 38.38 38.24 36.86 36.14 35.44 34.75 33.51 33.33 35.43 36.59 37.20 38.33 38.99 38.72 40.10 40.31 39.45 38.53 39.72 40.52 40.03 41.13 42.40 44.20 46.26 50.63 57.06 56.46 54.73 57.00 55.38 57.69 63.43 65.73 65.86 66.58 66.15
MSLP
1022.92 1022.75 1022.28 1021.50 1020.58 1019.63 1018.73 1017.96 1017.40 1016.61 1016.39 1016.40 1016.33 1016.25 1016.22 1016.16 1016.14 1016.17 1016.21 1016.27 1016.29 1016.21 1016.36 1016.60 1016.78 1016.86 1017.07 1017.20 1017.22 1017.14 1017.24 1017.41 1017.52 1017.67 1017.89 1017.91 1018.15 1018.24 1018.37 1018.81 1019.15 1019.29 1019.61
1023.49 1023.13 1022.47 1021.74 1020.91 1020.09 1019.30 1018.59 1017.97 1017.37 1016.57 1016.37 1016.44 1016.39 1016.36 1016.36 1016.26 1016.36 1016.36 1016.36 1016.46 1016.56 1016.56 1016.68 1016.93 1017.03 1017.14 1017.39 1017.42 1017.43 1017.47 1017.65 1017.82 1017.94 1018.26 1018.35 1018.54 1018.61 1018.65 1018.98 1019.45 1019.53 1019.83
1023.65 1023.19 1022.63 1021.86 1021.12 1020.56 1019.86 1019.18 1018.51 1017.89 1017.36 1016.66 1016.33 1016.48 1016.52 1016.51 1016.53 1016.50 1016.56 1016.56 1016.54 1016.70 1016.77 1016.79 1016.83 1017.09 1017.32 1017.51 1017.59 1017.59 1017.65 1017.71 1018.05 1018.11 1018.37 1018.62 1018.81 1018.83 1018.99 1019.30 1019.63 1019.84 1020.08
1024.03 1023.55 1022.93 1022.16 1021.44 1020.81 1020.34 1019.75 1019.14 1018.50 1017.89 1017.29 1016.61 1016.32 1016.44 1016.48 1016.46 1016.36 1016.45 1016.44 1016.54 1016.71 1016.88 1017.00 1016.94 1017.04 1017.33 1017.56 1017.63 1017.74 1017.84 1017.78 1018.04 1018.14 1018.48 1018.72 1018.74 1019.01 1019.22 1019.65 1019.81 1020.12 1020.45
1024.25 1023.87 1023.37 1022.60 1021.98 1021.20 1020.49 1020.05 1019.55 1019.05 1018.48 1017.88 1017.20 1016.51 1016.33 1016.36 1016.41 1016.39 1016.40 1016.46 1016.46 1016.48 1016.72 1016.94 1017.12 1016.92 1017.30 1017.47 1017.66 1017.76 1017.91 1017.76 1018.04 1018.25 1018.67 1019.05 1019.23 1019.40 1019.49 1019.86 1020.10 1020.37 1020.76
1024.65 1024.28 1023.77 1023.03 1022.44 1021.73 1020.87 1020.43 1020.04 1019.39 1018.85 1018.36 1017.71 1017.09 1016.51 1016.36 1016.44 1016.27 1016.39 1016.38 1016.49 1016.41 1016.52 1016.73 1017.07 1017.11 1017.22 1017.41 1017.52 1017.71 1017.96 1017.97 1018.21 1018.71 1018.67 1019.07 1019.25 1019.54 1019.85 1019.96 1020.28 1020.62 1020.98
1025.15 1024.76 1024.28 1023.55 1022.88 1022.21 1021.53 1020.85 1020.47 1019.96 1019.36 1018.76 1018.32 1017.75 1017.18 1016.34 1016.23 1016.25 1016.19 1016.28 1016.20 1016.51 1016.49 1016.62 1016.69 1017.07 1017.18 1017.31 1017.37 1017.57 1017.89 1018.18 1018.28 1018.64 1018.96 1019.10 1019.44 1019.57 1019.87 1020.16 1020.33 1020.75 1021.13
1025.59 1025.24 1024.85 1024.21 1023.51 1022.68 1021.82 1021.27 1020.70 1020.36 1019.96 1019.48 1018.88 1018.42 1017.64 1016.92 1016.30 1016.14 1016.16 1016.19 1016.36 1016.37 1016.30 1016.50 1016.52 1016.88 1017.00 1017.00 1017.14 1017.41 1017.79 1018.13 1018.23 1018.53 1018.92 1019.05 1019.49 1019.79 1020.03 1020.32 1020.45 1020.75 1021.26
1025.99 1025.69 1025.29 1024.77 1024.21 1023.43 1022.55 1021.75 1021.04 1020.44 1020.39 1020.04 1019.35 1018.87 1018.31 1017.48 1017.05 1016.60 1015.93 1015.87 1015.97 1016.17 1016.20 1016.27 1016.36 1016.36 1016.70 1016.67 1016.97 1017.29 1017.67 1018.13 1018.37 1018.69 1019.51 1019.53 1019.43 1019.76 1020.25 1020.52 1020.69 1020.87 1021.16
1026.28 1026.17 1025.75 1025.18 1024.66 1023.96 1023.23 1022.51 1021.73 1020.99 1020.73 1020.33 1019.67 1019.33 1018.82 1018.13 1017.48 1017.05 1016.66 1015.67 1015.58 1015.67 1015.86 1016.16 1016.10 1016.02 1016.34 1016.46 1016.66 1017.10 1017.45 1018.04 1018.52 1018.70 1019.82 1019.89 1019.49 1019.82 1020.16 1020.58 1020.81 1021.14 1021.31
1026.61 1026.36 1026.24 1025.72 1025.10 1024.51 1023.76 1023.16 1022.41 1021.74 1021.01 1020.64 1020.25 1019.49 1019.59 1018.91 1017.97 1017.78 1017.47 1016.50 1015.37 1015.37 1015.42 1015.70 1015.89 1015.70 1015.99 1016.36 1016.44 1016.79 1017.42 1017.71 1018.47 1019.19 1019.59 1019.53 1018.90 1019.90 1020.08 1020.51 1020.91 1021.17 1021.55
1027.13 1026.66 1026.40 1026.13 1025.69 1025.03 1024.25 1023.75 1023.04 1022.49 1021.77 1021.17 1020.79 1019.14 1020.53 1019.78 1018.42 1018.50 1018.17 1017.27 1016.49 1015.25 1015.05 1015.12 1015.37 1015.57 1015.72 1016.40 1016.48 1016.63 1017.27 1017.44 1017.58 1018.58 1018.74 1018.72 1018.71 1019.45 1020.12 1020.41 1020.83 1021.26 1021.61
1027.70 1027.20 1026.83 1026.59 1026.10 1025.47 1024.82 1024.23 1023.64 1023.01 1022.33 1021.42 1020.71 1020.52 1020.84 1020.03 1018.52 1018.92 1018.30 1018.05 1017.15 1016.13 1014.98 1015.18 1015.13 1015.29 1015.33 1016.03 1016.47 1016.49 1016.81 1017.42 1017.59 1017.93 1018.02 1018.60 1018.82 1019.01 1019.76 1020.33 1020.59 1021.20 1021.65
1027.96 1027.65 1027.16 1026.86 1026.43 1025.79 1025.29 1024.72 1024.10 1023.70 1023.01 1022.57 1022.32 1022.47 1021.70 1020.62 1018.68 1019.54 1019.00 1018.77 1017.98 1016.59 1016.07 1014.70 1014.85 1014.63 1015.21 1015.53 1015.91 1016.09 1016.27 1016.82 1017.63 1017.97 1018.08 1019.49 1018.94 1018.63 1019.18 1020.09 1020.46 1021.03 1021.55
1028.30 1027.92 1027.54 1027.19 1026.73 1026.15 1025.68 1025.12 1024.50 1023.94 1023.53 1023.20 1022.88 1022.73 1022.41 1021.94 1021.54 1021.15 1019.22 1019.25 1018.40 1017.44 1017.10 1015.02 1014.16 1014.28 1014.85 1015.14 1015.29 1015.77 1015.86 1016.12 1017.22 1018.09 1018.87 1018.66 1018.50 1018.64 1018.89 1019.73 1020.14 1020.88 1021.43
1028.43 1028.03 1027.74 1027.50 1027.09 1026.49 1026.08 1025.56 1024.97 1024.39 1023.83 1023.35 1023.06 1022.91 1022.60 1022.37 1022.14 1021.51 1020.54 1019.22 1018.30 1018.13 1017.24 1015.99 1014.20 1013.81 1014.32 1014.87 1015.12 1015.32 1015.56 1015.47 1016.42 1017.02 1018.18 1018.15 1018.32 1018.33 1018.99 1019.42 1019.83 1020.55 1021.19
1028.71 1028.41 1027.97 1027.43 1027.34 1026.89 1026.59 1025.92 1025.35 1024.66 1024.24 1023.62 1023.42 1023.23 1023.20 1022.76 1022.50 1021.96 1021.06 1020.16 1019.18 1018.30 1017.52 1015.55 1014.10 1013.80 1014.12 1014.82 1014.91 1015.09 1015.31 1015.17 1015.81 1016.46 1016.61 1017.36 1017.79 1018.00 1018.77 1019.28 1019.60 1020.10 1020.76
1028.88 1028.56 1028.29 1027.90 1027.57 1027.21 1027.15 1026.25 1025.85 1025.13 1024.49 1024.05 1023.70 1023.76 1023.56 1023.14 1022.81 1022.22 1021.42 1020.77 1019.86 1018.52 1016.88 1015.06 1014.81 1013.95 1014.69 1015.02 1015.19 1015.02 1015.07 1015.11 1015.20 1015.98 1016.17 1016.30 1017.11 1017.70 1018.49 1018.96 1019.34 1019.57 1020.39
1028.84 1028.67 1028.43 1028.20 1027.81 1027.61 1027.41 1026.74 1026.25 1025.65 1025.00 1024.47 1024.18 1024.10 1023.81 1023.29 1022.87 1022.49 1021.92 1021.19 1020.44 1019.44 1017.90 1016.71 1016.11 1015.56 1014.56 1014.60 1015.20 1015.27 1014.96 1014.78 1014.94 1015.45 1016.00 1015.96 1016.28 1017.28 1017.85 1018.41 1019.02 1019.42 1019.80
1028.82 1028.70 1028.65 1028.38 1027.98 1027.85 1027.57 1027.09 1026.63 1026.06 1025.53 1025.04 1024.82 1024.72 1024.16 1023.69 1022.87 1022.58 1022.17 1021.76 1020.83 1019.91 1019.24 1018.22 1016.58 1016.15 1015.14 1014.44 1014.81 1015.21 1015.03 1014.82 1014.66 1015.18 1015.63 1015.23 1015.85 1016.65 1017.32 1017.83 1018.43 1019.09 1019.40
1029.01 1028.97 1028.80 1028.47 1028.23 1028.15 1027.83 1027.37 1026.94 1026.45 1026.12 1025.71 1025.33 1025.18 1024.77 1024.15 1023.26 1022.63 1022.39 1021.91 1021.30 1020.62 1019.94 1019.05 1017.93 1016.97 1015.86 1015.00 1014.86 1014.76 1014.61 1014.75 1014.86 1015.04 1015.59 1015.14 1015.46 1015.75 1016.48 1017.51 1017.85 1018.27 1019.09
1029.43 1029.15 1028.92 1028.70 1028.50 1028.39 1028.11 1027.69 1027.36 1026.86 1026.58 1026.40 1026.05 1025.58 1025.48 1024.74 1023.89 1022.85 1022.35 1022.08 1021.80 1021.01 1020.24 1019.85 1019.03 1017.51 1017.08 1015.40 1014.85 1014.75 1014.77 1014.22 1014.42 1014.91 1015.69 1014.75 1014.45 1015.06 1015.95 1016.86 1017.39 1017.63 1018.44
1029.54 1029.29 1028.94 1028.75 1028.43 1028.22 1027.99 1027.59 1027.22 1026.89 1026.61 1026.43 1026.06 1025.85 1025.82 1025.20 1024.33 1023.48 1022.88 1022.30 1021.97 1021.47 1020.77 1020.19 1019.89 1019.35 1018.17 1017.13 1016.50 1014.79 1014.38 1013.45 1014.07 1014.29 1014.51 1014.23 1014.25 1014.79 1015.50 1016.05 1016.63 1017.11 1017.70
1029.47 1029.05 1028.90 1028.80 1028.51 1028.16 1027.98 1027.71 1027.52 1027.33 1027.21 1027.04 1026.70 1026.07 1025.93 1025.40 1024.79 1024.14 1023.43 1022.72 1022.14 1021.79 1021.23 1020.65 1020.00 1019.76 1018.89 1018.10 1016.88 1014.94 1014.19 1013.76 1014.25 1014.28 1013.66 1013.39 1013.75 1014.31 1014.72 1014.94 1015.79 1016.37 1016.95
1029.28 1029.06 1028.91 1028.70 1028.48 1028.38 1028.11 1027.87 1027.70 1027.75 1027.62 1027.50 1027.14 1026.66 1026.07 1025.44 1024.95 1024.34 1023.68 1022.92 1022.26 1021.82 1021.35 1020.99 1020.27 1019.95 1019.53 1018.99 1018.32 1017.44 1015.58 1013.90 1013.77 1014.30 1013.74 1013.44 1013.67 1013.75 1013.97 1014.49 1014.82 1015.48 1015.97
1029.23 1029.09 1028.93 1028.70 1028.61 1028.54 1028.37 1028.06 1027.78 1028.12 1028.00 1027.82 1027.43 1026.86 1026.19 1025.53 1024.87 1024.28 1023.81 1023.07 1022.45 1021.89 1021.47 1021.16 1020.62 1019.97 1019.45 1018.73 1018.20 1017.37 1016.73 1015.22 1013.57 1013.12 1013.74 1013.50 1012.66 1012.63 1013.25 1013.84 1014.23 1014.48 1015.11
Wind_Speed
12 15 27 30 30 29 28 27 26 18 7 6 5 5 5 7 8 9 9 9 8 9 10 9 7 6 6 12 12 14 15 14 16 18 18 19 21 22 20 19 18 16 19
8 11 23 29 29 30 29 28 27 26 16 2 3 2 2 4 6 6 7 7 7 6 7 7 6 4 7 12 12 13 15 14 14 17 16 17 17 18 20 19 17 17 19
15 13 18 26 28 29 29 28 27 27 26 15 2 1 1 3 4 5 5 5 6 5 5 5 6 5 9 11 11 13 14 15 13 16 15 7 6 12 22 19 18 19 19
14 13 17 27 28 27 27 28 27 27 26 24 12 4 3 4 6 6 6 6 5 5 6 6 6 7 9 10 10 12 14 16 14 14 7 6 10 20 22 20 19 19 19
13 14 18 26 28 27 25 26 28 27 26 27 23 9 6 7 7 7 7 6 6 7 8 8 7 8 10 10 10 11 13 14 14 11 7 6 8 16 22 19 18 19 18
13 14 20 26 29 28 27 26 26 27 27 26 27 28 9 8 9 9 9 8 7 8 9 10 8 9 10 10 11 10 10 11 9 5 10 10 9 19 21 18 18 18 18
14 14 17 27 29 28 27 27 22 24 26 27 26 27 27 10 10 10 10 10 9 8 9 10 11 9 11 11 11 10 10 10 7 4 7 10 10 19 21 18 19 19 19
14 13 16 25 29 28 25 27 24 21 24 27 28 28 26 23 12 10 10 10 8 9 10 10 11 11 12 12 12 11 7 8 7 7 7 11 15 18 21 20 19 19 18
10 11 14 17 22 26 25 25 25 24 22 23 26 28 27 24 25 15 11 11 10 10 10 10 10 12 12 13 12 10 7 7 4 2 5 6 19 19 21 20 19 19 18
11 8 13 17 17 16 15 26 27 24 23 24 23 27 25 23 25 24 20 12 12 11 10 10 11 12 14 13 13 10 8 4 2 5 6 7 18 19 21 21 19 17 18
12 13 7 15 17 15 16 16 20 22 22 21 16 23 19 11 14 19 23 21 12 12 12 11 11 13 13 13 13 11 6 3 5 7 5 16 24 21 22 19 18 18 18
13 14 10 13 16 14 12 14 13 14 11 10 6 12 9 10 13 16 19 23 25 12 13 13 13 12 10 5 5 7 3 4 4 4 5 18 23 23 21 20 19 18 18
8 12 10 10 14 14 12 9 7 9 10 10 9 8 9 10 10 9 9 10 10 18 5 7 7 6 9 5 5 4 5 5 2 3 1 11 23 24 24 22 20 19 18
8 11 10 8 13 14 8 8 6 8 9 10 11 18 12 9 13 9 8 10 10 8 13 7 5 7 7 8 7 7 6 5 4 4 5 16 20 25 24 23 22 21 19
8 8 9 8 12 13 9 10 8 7 6 9 10 13 11 11 11 12 9 9 9 10 10 9 7 7 7 8 7 7 7 7 8 7 7 12 17 20 24 24 24 22 21
8 8 8 8 10 12 7 13 9 5 5 5 7 9 13 11 10 10 8 11 9 9 10 11 5 6 7 7 8 7 8 7 8 7 8 13 13 20 21 23 23 23 22
5 7 9 12 10 13 8 13 8 8 8 5 4 7 12 12 13 12 10 10 11 11 14 11 6 1 2 4 7 8 6 8 5 9 6 8 11 18 18 20 22 22 23
6 8 8 8 10 12 8 11 7 8 10 5 4 6 10 13 16 12 10 10 12 11 9 10 13 2 2 1 3 4 7 6 7 8 7 6 5 9 13 18 20 21 20
6 7 7 8 10 9 8 10 8 10 10 8 5 8 11 12 14 13 10 10 12 11 12 12 9 11 4 3 3 3 4 6 8 6 10 9 10 9 10 16 17 20 20
6 7 7 7 8 7 6 7 6 9 8 9 9 9 13 11 15 14 11 12 12 10 10 12 13 11 9 3 3 6 3 5 4 7 11 9 9 10 11 14 13 12 19
7 8 7 8 8 5 6 9 9 10 5 8 9 13 16 12 15 14 12 13 12 11 12 12 11 12 10 5 3 4 6 5 8 4 7 9 10 11 11 11 10 9 11
6 7 7 7 8 5 4 4 6 8 3 6 8 9 13 15 15 12 12 14 13 11 11 12 13 10 6 9 5 2 4 5 5 12 10 10 12 10 12 13 14 13 12
6 5 6 6 6 5 6 3 5 6 3 6 9 7 10 14 14 15 14 12 12 11 11 11 11 12 9 10 12 3 4 7 4 4 9 5 10 11 13 15 16 15 15
3 4 5 5 6 6 6 5 6 6 4 4 6 8 9 14 14 14 14 13 10 9 11 11 9 10 8 10 10 4 8 1 6 3 4 5 4 9 11 12 14 16 15
4 3 3 5 6 6 6 6 6 5 3 3 6 10 10 12 13 11 15 13 11 8 10 12 11 9 8 7 7 8 9 6 12 8 4 8 3 6 8 11 13 13 16
5 4 4 6 5 6 6 7 8 7 8 7 8 7 10 10 10 12 13 13 10 9 10 10 12 10 10 9 8 7 8 7 6 9 10 9 15 13 10 10 12 12 13
Wind_Direction
2 6 4 0 1 2 1 2 0 351 342 336 1 19 54 68 73 76 78 84 90 103 111 107 102 111 118 112 110 106 105 104 112 112 116 118 120 122 117 110 108 108 108
355 3 5 6 5 5 5 3 4 1 344 322 337 1 59 91 98 93 96 98 100 106 118 121 116 130 122 121 120 116 116 113 116 118 121 124 130 126 116 113 113 116 110
15 1 4 5 8 7 7 5 4 4 2 341 196 287 265 144 128 124 126 121 123 126 140 146 146 165 131 123 122 123 125 123 124 124 118 114 125 137 119 116 119 118 114
17 3 1 4 6 10 8 6 5 3 2 358 332 197 217 197 180 170 170 161 159 158 160 173 170 161 141 130 133 137 142 136 135 129 117 124 127 124 123 125 124 122 118
20 10 2 6 5 6 10 9 7 4 3 1 354 303 219 205 195 189 187 188 191 180 174 181 178 146 148 150 154 162 157 151 150 134 121 106 124 129 131 131 129 128 123
18 12 6 8 6 6 2 11 7 6 6 4 2 1 279 222 216 198 198 199 211 197 181 185 171 162 159 168 176 188 170 169 163 118 133 128 136 138 137 134 131 127 127
20 15 10 8 6 4 5 4 11 10 8 8 5 360 359 300 227 215 202 209 198 208 189 192 171 177 169 184 193 196 194 178 173 191 158 131 142 144 145 143 133 130 128
23 18 14 10 7 3 2 4 7 8 11 8 6 0 358 352 301 227 212 211 215 204 199 194 180 176 183 192 205 202 207 181 185 143 155 144 151 151 147 140 134 131 131
28 22 18 12 7 1 357 3 5 5 11 12 9 4 359 360 0 315 224 214 209 208 200 197 184 173 196 196 211 207 185 212 155 134 153 165 154 153 150 144 139 138 136
31 22 22 14 8 3 6 2 360 4 7 5 10 5 1 3 0 346 328 222 211 199 196 202 189 186 200 201 209 211 183 183 167 111 172 188 156 159 155 152 147 143 141
31 22 21 16 8 5 7 358 354 1 2 357 3 11 354 3 1 350 337 337 217 203 198 193 200 192 202 205 209 213 165 176 174 162 199 181 152 166 163 156 153 149 148
28 18 21 20 10 359 4 360 1 359 347 339 339 19 353 354 12 356 340 343 353 230 205 190 192 210 188 212 221 222 178 191 198 178 221 172 162 164 167 159 156 155 153
23 17 10 21 14 3 359 358 360 2 356 347 351 354 356 351 8 0 349 337 339 334 214 206 192 205 191 190 216 195 184 188 180 182 195 187 173 164 166 163 158 160 157
27 13 2 16 13 4 354 352 351 4 4 2 6 23 8 356 16 343 354 340 326 334 314 194 198 194 208 197 203 206 210 182 160 118 139 241 185 167 166 168 163 163 160
31 10 358 12 12 360 354 358 343 360 5 3 17 19 15 7 1 344 355 326 338 341 309 290 193 194 207 205 202 206 206 207 160 156 169 215 204 171 168 172 168 168 166
22 20 0 12 2 354 352 359 346 337 344 1 24 18 20 11 360 349 339 331 339 336 314 309 246 186 205 208 211 207 207 231 161 188 167 191 195 172 176 174 172 173 174
6 15 7 17 3 352 356 357 347 343 348 352 25 25 20 15 3 348 346 341 343 325 320 317 285 294 249 217 214 218 201 219 175 155 156 188 189 171 176 180 175 174 180
24 19 11 13 3 356 6 351 350 351 342 327 26 40 22 17 7 354 348 347 341 333 351 330 344 326 300 295 263 235 221 197 189 186 170 164 189 178 180 176 178 174 179
34 21 18 11 2 0 2 352 343 344 343 337 22 27 11 10 8 1 355 345 343 341 343 357 331 318 231 228 284 269 253 221 176 183 174 183 171 191 179 179 179 179 174
39 26 28 13 0 9 359 2 350 346 345 12 1 19 16 359 358 359 1 349 346 345 346 340 346 330 309 211 264 274 248 285 201 176 191 183 178 186 180 183 181 184 169
31 28 25 16 1 20 2 5 355 342 352 11 3 20 5 348 354 356 359 354 346 344 347 346 339 337 316 314 199 240 244 233 266 221 227 184 192 181 172 190 185 183 181
35 30 21 15 4 15 6 359 351 336 3 2 3 13 357 352 345 349 356 354 348 342 345 353 348 347 304 351 274 169 251 262 223 210 230 195 200 185 183 187 191 187 185
31 28 31 13 360 25 2 353 350 339 354 358 360 3 357 351 343 348 357 350 351 347 343 345 351 346 328 322 313 284 187 229 291 185 216 189 197 193 188 185 190 190 187
348 28 37 9 7 22 1 11 355 350 4 355 342 350 351 350 351 351 349 340 348 347 343 336 345 336 330 323 320 329 295 233 211 212 238 218 184 200 206 188 192 193 190
348 11 43 16 20 18 8 15 360 14 3 351 7 352 341 348 349 344 348 337 338 347 341 336 331 337 327 312 313 306 315 264 233 233 274 218 208 230 203 195 187 192 192
341 16 38 24 16 21 10 8 358 37 20 16 354 347 346 344 345 349 343 343 335 340 339 338 331 322 322 310 301 306 290 291 244 212 217 243 214 209 206 195 196 190 189